Regional Weather Roundup
Issued by NWS

Home | Current Version | Previous Version | Graphics & Text | Print | Product List | Glossary On
Versions: 1 2 3 4 5 6 7 8 9 10 11 12 13 14 15 16 17 18 19 20 21 22 23 24 25 26 27 28 29 30 31 32 33 34 35 36 37 38 39 40 41 42 43 44 45 46 47 48 49 50
000
ASUS43 KLSX 260757
RWRMO

WEATHER SUMMARY FOR MISSOURI
NATIONAL WEATHER SERVICE SPRINGFIELD MO
300 AM CDT MON JUN 26 2017

NOTE: "FAIR" INDICATES FEW OR NO CLOUDS BELOW 12,000 FEET WITH NO
       SIGNIFICANT WEATHER AND/OR OBSTRUCTIONS TO VISIBILITY.
       CURRENT SKY AND/OR WEATHER CONDITIONS ARE NOT AVAILABLE FOR
       CHILLICOTHE AND FARMINGTON.

MOZ001>031-035>038-043-044-053-054-260900-
...NORTHERN AND WESTERN MISSOURI...

CITY           SKY/WX    TMP DP  RH WIND       PRES   REMARKS
KANSAS CTY INT CLEAR     55  54  96 SW7       30.23R
LEE`S SUMMIT     N/A     56  52  86 SW5       30.23F
ST JOSEPH        N/A     54  54 100 S6        30.21F
CHILLICOTHE      N/A     51  49  92 CALM      30.22S

$$
MOZ066>068-077>081-088>096-101>105-260900-
...SOUTHWEST MISSOURI...

CITY           SKY/WX    TMP DP  RH WIND       PRES   REMARKS
SPRINGFIELD    CLOUDY    66  57  72 N5        30.23S
JOPLIN         CLOUDY    66  59  78 NE5       30.25R

$$
MOZ032>034-039>042-045>050-055>058-069>072-260900-
...CENTRAL MISSOURI...

CITY           SKY/WX    TMP DP  RH WIND       PRES   REMARKS
COLUMBIA       NOT AVBL
JEFFERSON CITY CLEAR     57  51  80 N5        30.23S
ROLLA          MOCLDY    58  49  72 NW3       30.23R
SEDALIA        CLEAR     56  53  90 CALM      30.24S
WARRENSBURG    PTCLDY    52  48  87 S3        30.23F

$$
MOZ051-052-059>065-260900-
...EAST CENTRAL MISSOURI...

CITY           SKY/WX    TMP DP  RH WIND       PRES   REMARKS
ST LOUIS INTL  CLEAR     62  49  62 CALM      30.20F

$$
MOZ072>076-082>087-097>100-106>115-260900-
...SOUTH CENTRAL AND SOUTHEAST MISSOURI...

CITY           SKY/WX    TMP DP  RH WIND       PRES   REMARKS
CAPE GIRARDEAU CLOUDY    66  59  78 CALM      30.18S
POPLAR BLUFF   CLOUDY    66  62  87 N5        30.18S
WEST PLAINS    CLOUDY    67  51  56 N6        30.24R

$$



USA.gov is the U.S. government's official web portal to all federal, state and local government web resources and services.